#timestamp,LO_Frequency,Hit 
1500649215.7,286046862.3,N
1500649235.5,286046859.6,N
1500649255.3,286046861.6,N
1500649275.2,286046858.3,N
1500649295.0,286046851.3,N
1500649295.9,286046851.3,N
1500649315.7,286046852.3,N
1500649335.6,286046846.2,N
1500649355.4,286046841.5,N
1500649375.2,286046838.1,N
1500649395.1,286046837.9,N
1500649396.0,286046837.9,N
1500649415.8,286046833.8,N
1500649435.6,286046830.1,N
1500649455.5,286046828.4,N
1500649475.3,286046828.1,N
1500649495.1,286046826.8,N
1500649515.9,286046825.2,N
1500649535.7,286046821.6,N
1500649555.5,286046819.7,N
1500649575.4,286046814.7,N
1500649595.2,286046812.0,N
1500649615.0,286046809.7,N
1500649615.9,286046809.7,N
1500649635.8,286046813.9,N
1500649655.6,286046808.1,N
1500649675.4,286046806.2,N
1500649695.3,286046803.1,N
1500649715.1,286046807.3,N
1500649716.0,286046807.3,N
1500649735.8,286046802.9,N
1500649755.7,286046809.7,N
1500649775.5,286046826.7,N
1500649795.3,286046833.1,N
1500649815.2,286046840.7,N
1500649835.9,286046837.1,N
1500649855.7,286046842.6,N
1500649875.6,286046842.2,N
1500649895.4,286046841.1,N
1500649915.2,286046838.4,N
1500649935.1,286046833.2,N
1500649936.0,286046833.2,N
1500649955.8,286046837.4,N
1500649975.6,286046831.8,N
1500649995.4,286046827.9,N
1500650015.3,286046826.7,N
1500650035.1,286046820.5,N
1500650055.8,286046820.1,N
1500650075.7,286046814.1,N
1500650095.5,286046819.3,N
1500650115.3,286046824.9,N
1500650135.2,286046838.7,N
1500650155.0,286046845.6,N
1500650155.9,286046845.6,N
1500650175.7,286046850.7,N
1500650195.6,286046856.1,N
1500650215.4,286046851.1,N
1500650235.2,286046856.4,N
1500650255.1,286046861.5,N
1500650256.0,286046861.5,N
1500650275.8,286046849.3,N
1500650295.6,286046846.7,N
1500650315.5,286046844.3,N
1500650335.3,286046840.9,N
1500650355.1,286046836.7,N
1500650375.9,286046834.6,N
1500650395.7,286046828.7,N
1500650415.5,286046826.3,N
1500650435.4,286046825.0,N
1500650455.2,286046820.7,N
1500650475.0,286046829.3,N
1500650475.9,286046829.3,N
1500650495.8,286046830.0,N
1500650515.6,286046824.7,N
1500650535.4,286046819.1,N
1500650555.3,286046817.7,N
1500650575.1,286046814.8,N
1500650576.0,286046814.8,N
1500650595.8,286046813.0,N
1500650615.7,286046810.0,N
1500650635.5,286046812.0,N
1500650655.3,286046811.9,N
1500650675.2,286046818.9,N
1500650695.9,286046829.6,N
1500650715.7,286046831.2,N
1500650735.6,286046823.9,N
1500650755.4,286046817.3,N
1500650775.2,286046825.4,N
1500650795.0,286046839.1,N
1500650796.0,286046839.1,N
1500650815.8,286046843.8,N
1500650835.6,286046842.6,N
1500650855.5,286046837.3,N
1500650875.3,286046832.4,N
1500650895.1,286046829.9,N
1500650915.8,286046833.7,N
1500650935.7,286046833.9,N
1500650955.5,286046831.4,N
1500650975.3,286046827.2,N
1500650995.2,286046839.7,N
1500651015.0,286046855.5,N
1500651015.9,286046855.5,N
1500651035.7,286046853.9,N
1500651055.6,286046846.9,N
1500651075.4,286046841.0,N
1500651095.2,286046835.0,N
1500651115.1,286046833.1,N
1500651116.0,286046833.1,N
1500651135.8,286046829.8,N
1500651155.6,286046828.4,N
1500651175.5,286046826.0,N
1500651195.3,286046820.7,N
1500651215.1,286046817.8,N
1500651235.9,286046815.5,N
1500651255.7,286046811.2,N
1500651275.5,286046811.8,N
1500651295.4,286046810.1,N
1500651315.2,286046806.2,N
1500651335.0,286046808.8,N
1500651335.9,286046808.8,N
1500651355.8,286046811.4,N
1500651375.6,286046808.8,N
1500651395.4,286046803.8,N
1500651415.3,286046801.8,N
1500651435.1,286046801.0,N
1500651436.0,286046801.0,N
1500651455.8,286046802.2,N
1500651475.7,286046820.0,N
1500651495.5,286046817.3,N
1500651515.3,286046831.1,N
1500651535.2,286046830.1,N
1500651555.9,286046827.9,N
1500651575.7,286046824.2,N
1500651595.5,286046817.4,N
1500651615.4,286046816.1,N
1500651635.2,286046820.0,N
1500651655.0,286046811.1,N
1500651655.9,286046811.1,N
1500651675.8,286046808.1,N
1500651695.6,286046807.2,N
1500651715.4,286046807.9,N
1500651735.3,286046805.9,N
1500651755.1,286046806.8,N
1500651775.8,286046826.8,N
1500651795.7,286046827.2,N
1500651815.5,286046825.6,N
1500651835.3,286046817.3,N
1500651855.2,286046813.1,N
1500651875.9,286046807.9,N
1500651895.7,286046807.2,N
1500651915.6,286046808.8,N
1500651935.4,286046816.1,N
1500651955.2,286046833.5,N
1500651975.1,286046842.2,N
1500651976.0,286046842.2,N
1500651995.8,286046839.7,N
1500652015.6,286046839.5,N
1500652035.5,286046847.8,N
1500652055.3,286046855.5,N
1500652075.1,286046850.0,N
1500652095.9,286046854.0,N
1500652115.7,286046849.9,N
1500652135.5,286046854.3,N
1500652155.4,286046867.5,N
1500652175.2,286046872.8,N
1500652195.0,286046865.4,N
1500652195.9,286046865.4,N
1500652215.8,286046866.1,N
1500652235.6,286046871.1,N
1500652255.4,286046861.9,N
1500652275.3,286046854.2,N
1500652295.1,286046854.0,N
1500652296.0,286046854.0,N
1500652315.8,286046851.3,N
1500652335.7,286046864.8,N
1500652355.5,286046856.7,N
1500652375.3,286046863.0,N
1500652395.1,286046860.2,N
1500652415.9,286046851.6,N
1500652435.7,286046846.6,N
1500652455.5,286046846.6,N
1500652475.4,286046850.3,N
1500652495.2,286046846.4,N
1500652515.0,286046840.2,N
1500652515.9,286046840.2,N
1500652535.8,286046836.8,N
1500652555.6,286046835.5,N
1500652575.4,286046832.2,N
1500652595.3,286046831.6,N
1500652615.1,286046829.5,N
1500652635.8,286046827.5,N
1500652655.7,286046820.7,N
1500652675.5,286046824.8,N
1500652695.3,286046821.5,N
1500652715.2,286046819.8,N
1500652735.9,286046815.9,N
1500652755.7,286046818.3,N
1500652775.6,286046811.0,N
1500652795.4,286046809.0,N
